| time (UTC) | temp F | wind direction | speed knots | gust knots | rain 1hr in | rain 24hr in | rain mn in | humidity % | barometer mb |
| 20260905221523 | 70 | 211 | 0.9 | 2.6 | 0.00 | 0.01 | 0.00 | 61 | 1016.8 |
| 20260905220030 | 70 | 261 | 1.7 | 3.5 | 0.00 | 0.01 | 0.00 | 62 | 1017.0 |
| 20260905214531 | 68 | 234 | 0.9 | 2.6 | 0.00 | 0.03 | 0.00 | 65 | 1017.0 |
| 20260905213011 | 67 | 204 | 0.9 | 3.5 | 0.00 | 0.03 | 0.00 | 64 | 1017.2 |
| 20260905211516 | 68 | 312 | 0.0 | 1.7 | 0.00 | 0.03 | 0.00 | 65 | 1017.3 |
| 20260905210026 | 66 | 124 | 0.0 | 2.6 | 0.00 | 0.03 | 0.00 | 70 | 1017.5 |
| 20260905204526 | 65 | 313 | 0.0 | 2.6 | 0.00 | 0.03 | 0.00 | 69 | 1017.6 |
| 20260905203032 | 64 | 232 | 1.7 | 2.6 | 0.00 | 0.05 | 0.00 | 72 | 1017.6 |
| 20260905201516 | 64 | 350 | 0.9 | 1.7 | 0.00 | 0.07 | 0.00 | 74 | 1017.7 |
| 20260905200026 | 63 | 211 | 0.9 | 2.6 | 0.00 | 0.07 | 0.00 | 76 | 1017.7 |
| 20260905194527 | 63 | 103 | 0.0 | 3.5 | 0.00 | 0.07 | 0.00 | 76 | 1017.9 |
| 20260905193034 | 62 | 236 | 0.0 | 0.9 | 0.00 | 0.07 | 0.00 | 80 | 1018.0 |
| 20260905191511 | 61 | 235 | 1.7 | 4.3 | 0.00 | 0.07 | 0.00 | 81 | 1018.1 |
| 20260905190030 | 61 | 236 | 1.7 | 3.5 | 0.00 | 0.07 | 0.00 | 81 | 1018.1 |
| 20260905184506 | 61 | 328 | 0.0 | 2.6 | 0.00 | 0.07 | 0.00 | 80 | 1018.1 |
| 20260905183012 | 60 | 352 | 0.9 | 2.6 | 0.00 | 0.07 | 0.00 | 81 | 1018.3 |
| 20260905181513 | 60 | 199 | 0.0 | 1.7 | 0.00 | 0.07 | 0.00 | 85 | 1018.3 |
| 20260905180022 | 60 | 344 | 0.0 | 2.6 | 0.00 | 0.07 | 0.00 | 85 | 1018.3 |
| 20260905174527 | 59 | 68 | 0.0 | 2.6 | 0.00 | 0.09 | 0.00 | 86 | 1018.2 |
| 20260905173006 | 59 | 268 | 0.0 | 1.7 | 0.00 | 0.09 | 0.00 | 87 | 1018.2 |
| 20260905171511 | 58 | 336 | 0.9 | 2.6 | 0.00 | 0.09 | 0.00 | 87 | 1018.1 |
| 20260905170016 | 58 | 33 | 0.0 | 2.6 | 0.00 | 0.09 | 0.00 | 88 | 1018.1 |
| 20260905164521 | 58 | 24 | 0.0 | 0.0 | 0.00 | 0.09 | 0.00 | 89 | 1018.1 |
| 20260905163003 | 58 | 352 | 0.0 | 1.7 | 0.00 | 0.09 | 0.00 | 89 | 1018.2 |
| 20260905161516 | 57 | 323 | 0.0 | 1.7 | 0.00 | 0.09 | 0.00 | 91 | 1018.2 |
| 20260905160013 | 57 | 330 | 0.0 | 1.7 | 0.00 | 0.09 | 0.00 | 91 | 1018.3 |
| 20260905154518 | 57 | 351 | 0.0 | 2.6 | 0.00 | 0.09 | 0.00 | 92 | 1018.3 |
| 20260905153025 | 57 | 352 | 0.0 | 1.7 | 0.00 | 0.09 | 0.00 | 93 | 1018.2 |
| 20260905151504 | 56 | 255 | 0.0 | 0.0 | 0.00 | 0.09 | 0.00 | 94 | 1018.2 |
| 20260905150013 | 56 | 245 | 0.0 | 0.0 | 0.00 | 0.09 | 0.00 | 95 | 1018.2 |
| 20260905144524 | 55 | 245 | 0.0 | 0.0 | 0.00 | 0.11 | 0.00 | 95 | 1018.2 |
| 20260905143023 | 55 | 245 | 0.0 | 0.0 | 0.00 | 0.12 | 0.00 | 95 | 1018.1 |
| 20260905141528 | 55 | 245 | 0.0 | 0.0 | 0.00 | 0.13 | 0.00 | 95 | 1018.1 |
| 20260905140018 | 55 | 245 | 0.0 | 0.0 | 0.00 | 0.13 | 0.00 | 95 | 1018.0 |
| 20260905134516 | 55 | 245 | 0.0 | 0.0 | 0.00 | 0.13 | 0.00 | 95 | 1018.0 |
| 20260905133026 | 55 | 245 | 0.0 | 0.0 | 0.00 | 0.16 | 0.00 | 95 | 1017.9 |
| 20260905131529 | 55 | 245 | 0.0 | 0.0 | 0.00 | 0.16 | 0.00 | 95 | 1017.9 |
| 20260905130028 | 55 | 245 | 0.0 | 0.0 | 0.00 | 0.16 | 0.00 | 95 | 1017.8 |
| 20260905124514 | 55 | 245 | 0.0 | 0.0 | 0.00 | 0.16 | 0.00 | 95 | 1017.7 |
| 20260905123020 | 55 | 245 | 0.0 | 0.0 | 0.00 | 0.16 | 0.00 | 95 | 1017.7 |
| 20260905121523 | 55 | 245 | 0.0 | 0.0 | 0.00 | 0.16 | 0.00 | 95 | 1017.6 |
| 20260905120042 | 55 | 245 | 0.0 | 0.0 | 0.00 | 0.16 | 0.00 | 95 | 1017.4 |
| 20260905114512 | 55 | 245 | 0.0 | 0.0 | 0.00 | 0.16 | 0.00 | 95 | 1017.5 |
| 20260905113016 | 55 | 245 | 0.0 | 0.0 | 0.00 | 0.17 | 0.00 | 95 | 1017.4 |
| 20260905111537 | 55 | 245 | 0.0 | 0.0 | 0.00 | 0.17 | 0.00 | 95 | 1017.3 |
| 20260905110030 | 56 | 245 | 0.0 | 0.0 | 0.00 | 0.18 | 0.00 | 95 | 1017.4 |
| 20260905104530 | 55 | 245 | 0.0 | 0.0 | 0.00 | 0.20 | 0.00 | 95 | 1017.4 |
| 20260905103022 | 55 | 245 | 0.0 | 0.0 | 0.00 | 0.22 | 0.00 | 95 | 1017.4 |
| 20260905101522 | 55 | 245 | 0.0 | 0.0 | 0.00 | 0.23 | 0.00 | 95 | 1017.4 |
| 20260905100024 | 55 | 245 | 0.0 | 0.0 | 0.00 | 0.24 | 0.00 | 95 | 1017.5 |
| 20260905094529 | 55 | 245 | 0.0 | 0.0 | 0.00 | 0.25 | 0.00 | 95 | 1017.5 |
| 20260905093031 | 55 | 245 | 0.0 | 0.0 | 0.00 | 0.27 | 0.00 | 95 | 1017.4 |
| 20260905091516 | 55 | 245 | 0.0 | 0.0 | 0.00 | 0.28 | 0.00 | 95 | 1017.3 |
| 20260905090006 | 55 | 245 | 0.0 | 0.0 | 0.00 | 0.28 | 0.00 | 95 | 1017.2 |
| 20260905084504 | 55 | 245 | 0.0 | 0.0 | 0.00 | 0.28 | 0.00 | 95 | 1017.2 |
| 20260905083009 | 55 | 245 | 0.0 | 0.0 | 0.00 | 0.28 | 0.00 | 95 | 1017.1 |
| 20260905081516 | 55 | 242 | 0.0 | 0.0 | 0.00 | 0.28 | 0.00 | 95 | 1017.1 |
| 20260905080028 | 55 | 244 | 0.0 | 0.0 | 0.00 | 0.28 | 0.00 | 95 | 1017.1 |
| 20260905074504 | 55 | 260 | 0.0 | 0.0 | 0.00 | 0.28 | 0.00 | 95 | 1017.0 |
| 20260905073004 | 55 | 239 | 0.0 | 0.0 | 0.00 | 0.28 | 0.00 | 95 | 1016.9 |
| 20260905071513 | 55 | 242 | 0.0 | 0.9 | 0.00 | 0.28 | 0.00 | 95 | 1016.8 |
| 20260905070036 | 55 | 245 | 0.0 | 0.0 | 0.00 | 0.28 | 0.00 | 95 | 1016.7 |
| 20260905064537 | 55 | 257 | 0.0 | 0.0 | 0.00 | 0.28 | 0.28 | 95 | 1016.6 |
| 20260905063008 | 55 | 257 | 0.0 | 0.0 | 0.00 | 0.28 | 0.28 | 95 | 1016.5 |
| 20260905061508 | 55 | 242 | 0.0 | 0.0 | 0.00 | 0.28 | 0.28 | 95 | 1016.5 |
| 20260905060020 | 54 | 246 | 0.0 | 0.0 | 0.00 | 0.28 | 0.28 | 95 | 1016.5 |
| 20260905054534 | 55 | 242 | 0.0 | 0.0 | 0.00 | 0.28 | 0.28 | 95 | 1016.4 |
| 20260905053006 | 55 | 248 | 0.0 | 0.0 | 0.00 | 0.28 | 0.28 | 95 | 1016.4 |
| 20260905051516 | 55 | 240 | 0.0 | 0.0 | 0.00 | 0.28 | 0.28 | 95 | 1016.4 |
| 20260905050012 | 55 | 240 | 0.0 | 1.7 | 0.00 | 0.28 | 0.28 | 95 | 1016.4 |
| 20260905044518 | 55 | 230 | 0.0 | 2.6 | 0.00 | 0.28 | 0.28 | 95 | 1016.4 |
| 20260905043033 | 55 | 238 | 0.9 | 2.6 | 0.00 | 0.28 | 0.28 | 94 | 1016.3 |
| 20260905041511 | 55 | 236 | 0.0 | 0.0 | 0.00 | 0.28 | 0.28 | 94 | 1016.2 |
| 20260905040021 | 55 | 217 | 0.0 | 0.0 | 0.00 | 0.28 | 0.28 | 93 | 1016.0 |
| 20260905034527 | 56 | 217 | 0.0 | 0.0 | 0.00 | 0.28 | 0.28 | 93 | 1015.8 |
| 20260905033027 | 56 | 217 | 0.0 | 0.0 | 0.00 | 0.28 | 0.28 | 93 | 1015.8 |
| 20260905031532 | 56 | 191 | 0.0 | 0.0 | 0.00 | 0.28 | 0.28 | 93 | 1015.6 |
| 20260905030009 | 57 | 313 | 0.0 | 0.0 | 0.00 | 0.29 | 0.28 | 92 | 1015.5 |
| 20260905024512 | 57 | 245 | 0.0 | 1.7 | 0.00 | 0.29 | 0.28 | 92 | 1015.3 |
| 20260905023018 | 57 | 223 | 0.0 | 0.0 | 0.00 | 0.32 | 0.28 | 92 | 1015.3 |
| 20260905021536 | 58 | 224 | 0.0 | 1.7 | 0.00 | 0.35 | 0.28 | 90 | 1015.2 |
| 20260905020029 | 59 | 242 | 0.0 | 0.0 | 0.00 | 0.37 | 0.28 | 89 | 1015.1 |
| 20260905014516 | 60 | 242 | 0.0 | 0.0 | 0.00 | 0.40 | 0.28 | 87 | 1015.1 |
| 20260905013017 | 60 | 242 | 0.0 | 0.0 | 0.00 | 0.41 | 0.28 | 86 | 1015.1 |
| 20260905011521 | 60 | 313 | 0.0 | 1.7 | 0.00 | 0.41 | 0.28 | 82 | 1015.1 |
| 20260905010031 | 60 | 338 | 0.0 | 0.9 | 0.00 | 0.41 | 0.28 | 83 | 1014.9 |
| 20260905004510 | 61 | 298 | 0.0 | 1.7 | 0.00 | 0.42 | 0.28 | 81 | 1014.9 |
| 20260905003020 | 61 | 360 | 0.0 | 2.6 | 0.00 | 0.43 | 0.28 | 80 | 1014.8 |
| 20260905001521 | 61 | 9 | 0.9 | 2.6 | 0.00 | 0.43 | 0.28 | 82 | 1014.7 |
| 20260905000030 | 61 | 322 | 0.9 | 2.6 | 0.00 | 0.44 | 0.28 | 84 | 1014.5 |
| 20260904234531 | 61 | 304 | 0.0 | 3.5 | 0.00 | 0.45 | 0.28 | 83 | 1014.6 |
| 20260904233014 | 61 | 333 | 0.9 | 5.2 | 0.01 | 0.45 | 0.28 | 83 | 1014.4 |
| 20260904231518 | 61 | 340 | 2.6 | 5.2 | 0.01 | 0.45 | 0.28 | 84 | 1014.3 |
| 20260904230026 | 59 | 288 | 0.0 | 3.5 | 0.01 | 0.45 | 0.28 | 85 | 1014.3 |
| 20260904224528 | 59 | 273 | 0.0 | 2.6 | 0.03 | 0.45 | 0.28 | 89 | 1014.4 |
| 20260904223038 | 58 | 277 | 0.0 | 0.0 | 0.02 | 0.44 | 0.27 | 90 | 1014.4 |